Location: Unspecified
(0.0000°N, 0.0000°E)
Time: 23:15:52
(UTC+02:00)

Transit 2A - Visible Passes

Search period start: 19 April 2015 00:00
Search period end: 29 April 2015 00:00
Orbit: 592 x 969 km, 66.7° (Epoch: 19 April)

Date Brightness Start Highest point End Pass type
(mag) Time Alt. Az. Time Alt. Az. Time Alt. Az.
19 Apr 6.3 20:14:41 10° N 20:19:35 41° ENE 20:24:04 10° SE visible
20 Apr 8.4 21:25:21 10° WNW 21:28:47 18° WSW 21:31:48 10° SSW visible
21 Apr 7.7 20:50:34 10° NW 20:55:03 30° WSW 20:59:06 10° S visible
22 Apr 6.7 20:16:19 10° NNW 20:21:19 53° WSW 20:25:51 10° S visible
23 Apr 8.2 07:06:54 10° SSE 07:11:30 29° ESE 07:16:36 10° NE visible
24 Apr 8.7 06:34:16 10° SSE 06:37:45 18° ESE 06:41:42 10° ENE visible
25 Apr 9.2 06:03:34 10° ESE 06:03:55 10° ESE 06:04:50 10° ESE visible
25 Apr 8.6 20:20:13 10° WNW 20:23:02 15° WSW 20:25:26 10° SW visible
26 Apr 6.3 07:07:43 10° SSW 07:13:14 90° ESE 07:19:18 10° NNE visible
27 Apr 6.9 06:34:08 10° S 06:39:29 56° ESE 06:45:24 10° NNE visible
28 Apr 7.7 06:01:49 15° SSE 06:05:45 34° ESE 06:11:10 10° NE visible
